Terminal Aerodrome Forecast
Issued by NWS King Salmon, AK

Home | Current Version | Previous Version | Text Only | Print | Product List | Glossary On
Versions: 1 2 3 4 5 6 7 8 9 10 11 12 13 14 15 16 17 18 19 20 21 22 23 24 25 26 27 28
829
FTAK31 PANC 142340
TAFAKN
TAF
PAKN 142340Z 1500/1524 VRB04KT 6SM -RA OVC025
      TEMPO 1500/1504 5SM -RA BKN010
     FM150400 18005KT 4SM -SNRA BKN008 OVC015
     FM151500 18005KT 6SM -SNRA BKN008 OVC015=

USA.gov is the U.S. government's official web portal to all federal, state and local government web resources and services.